TimeEST,TemperatureF,Dew PointF,Humidity,Sea Level PressureIn,VisibilityMPH,Wind Direction,Wind SpeedMPH,Gust SpeedMPH,PrecipitationIn,Events,Conditions,WindDirDegrees,DateUTC
12:55 AM,28.4,26.6,93,29.84,10.0,NW,3.5,-,N/A,,Overcast,320,2011-12-26 05:55:00
1:55 AM,27.9,26.1,93,29.84,10.0,WNW,4.6,-,N/A,,Overcast,300,2011-12-26 06:55:00
2:55 AM,28.6,26.1,90,29.84,8.0,Calm,Calm,-,0.00,Snow,Light Snow,0,2011-12-26 07:55:00
3:55 AM,27.9,25.5,91,29.83,10.0,West,3.5,-,0.00,Snow,Light Snow,260,2011-12-26 08:55:00
4:55 AM,28.4,25.9,90,29.84,10.0,WNW,3.5,-,0.00,Snow,Light Snow,290,2011-12-26 09:55:00
5:45 AM,26.6,24.8,93,29.86,10.0,West,6.9,-,N/A,,Mostly Cloudy,280,2011-12-26 10:45:00
5:55 AM,27.1,25.0,92,29.86,10.0,West,5.8,-,0.00,,Mostly Cloudy,270,2011-12-26 10:55:00
6:55 AM,25.2,22.3,89,29.90,10.0,NW,6.9,-,N/A,,Partly Cloudy,320,2011-12-26 11:55:00
7:55 AM,27.9,24.8,88,29.95,10.0,North,4.6,-,N/A,,Partly Cloudy,360,2011-12-26 12:55:00
8:55 AM,33.6,27.7,79,29.99,10.0,WNW,3.5,-,N/A,,Partly Cloudy,300,2011-12-26 13:55:00
9:55 AM,36.9,28.0,70,30.02,10.0,WNW,10.4,-,N/A,,Partly Cloudy,290,2011-12-26 14:55:00
10:55 AM,38.7,25.5,59,30.06,10.0,NW,13.8,26.5,N/A,,Partly Cloudy,310,2011-12-26 15:55:00
11:55 AM,37.9,20.7,50,30.05,10.0,WNW,16.1,26.5,N/A,,Partly Cloudy,290,2011-12-26 16:55:00
12:55 PM,37.8,19.4,48,30.07,10.0,WNW,16.1,23.0,N/A,,Partly Cloudy,300,2011-12-26 17:55:00
1:55 PM,37.6,19.0,47,30.11,10.0,NW,17.3,-,N/A,,Clear,310,2011-12-26 18:55:00
2:55 PM,35.6,17.8,48,30.13,10.0,NW,16.1,21.9,N/A,,Clear,310,2011-12-26 19:55:00
3:55 PM,33.3,18.0,53,30.16,10.0,WNW,11.5,-,N/A,,Clear,290,2011-12-26 20:55:00
4:55 PM,30.6,17.6,59,30.19,10.0,WNW,6.9,-,N/A,,Clear,290,2011-12-26 21:55:00
5:55 PM,29.7,17.8,61,30.22,10.0,West,5.8,-,N/A,,Clear,280,2011-12-26 22:55:00
6:55 PM,29.1,16.9,60,30.23,10.0,West,8.1,-,N/A,,Clear,270,2011-12-26 23:55:00
7:55 PM,29.1,17.6,62,30.23,10.0,West,4.6,-,N/A,,Clear,270,2011-12-27 00:55:00
8:55 PM,27.5,17.8,67,30.22,10.0,West,3.5,-,N/A,,Clear,260,2011-12-27 01:55:00
9:55 PM,24.4,17.2,74,30.18,10.0,South,5.8,-,N/A,,Clear,180,2011-12-27 02:55:00
10:55 PM,25.3,17.1,71,30.17,10.0,SW,5.8,-,N/A,,Partly Cloudy,220,2011-12-27 03:55:00
11:55 PM,24.8,18.7,78,30.17,10.0,SSW,4.6,-,N/A,,Clear,210,2011-12-27 04:55:00